sat.trackr.live / text

‹ back to catalog

STARLINK-34721

NORAD 65039 · 2025-161AA

PAYLOAD ACTIVE UNKNOWN

§ Identity

Operator
Country
US
Launch date
2025-07-30
Launch site
AFWTR
Launch vehicle
Mass (kg)
RCS (m²)

Purposes: comms

External: N2YO · Heavens-Above · Gunter

§ Orbital elements

Epoch: 2026-05-24T21:45:59.262624Z

Period
94.12 min
Inclination
53.1623°
Eccentricity
0.0014071
Mean motion
15.29941763 rev/d
Perigee alt
466.3 km
Apogee alt
485.6 km
Semi-major
6,854.1 km
B*
1.3554e-3
RAAN
299.8500°
Arg perigee
86.6993°
Mean anomaly
273.5618°
Rev number
4,590

§ Raw data

STARLINK-347211 65039U 25161AA  26144.90693591  .00039786  00000+0  13554-2 0  99992 65039  53.1623 299.8500 0014071  86.6993 273.5618 15.29941763 45909

JSON: /api/v1/satellites/65039 · /tle

For live sub-satellite position, see the globe view (requires WebGL).

§ Visibility from observer

Set your observer location to see the next 7 days of passes ≥ 10°. The values pass through the URL so the page stays shareable.

No JS? Fill the form by hand. The geolocation button needs JavaScript.